Probability
0 0 0 0 0 0 0 0 0 0 0 0 0 0 0 0 0 0 0 0 0 0 0 0 0 0 0 0 0 0 0 0 0 0 0 0 0 0 0 0 0 0 0
0 0 0 0 0 0 0 0 0 0 0 0 0 0 0 0 0 0 0 0 0 0 0 0 0 0 0 0 0 0 0 0 0 0 0 0 0 0 0 0 0 0 0
0 0 0 0 0 0 0 0 0 0 0 0 0 0 0 0 0 0 0 0 0 0 0 0 0 0 0 0 0 0 0 0 0 0 0 0 0 0 0 0 0 0 0
0 0 0 1 1 0 0 0 0 0 0 0 0 0 0 0 0 0 0 0 0 0 0 0 0 0 0 0 0 0 0 0 0 0 0 0 0 0 0 0 0 0 0
0 0 1 2 2 1 0 0 0 0 0 0 0 0 0 0 0 0 0 0 0 0 0 0 0 0 0 0 0 0 0 0 0 0 0 0 0 0 0 0 0 0 0
0 0 1 2 3 2 1 0 0 0 0 0 0 0 0 0 0 0 0 0 0 0 0 0 0 0 0 0 0 0 0 0 0 0 0 0 0 0 0 0 0 0 0
1 1 1 2 3 3 2 1 0 0 0 0 0 0 0 0 0 0 0 0 0 0 0 0 0 0 0 0 0 0 0 0 0 0 0 0 0 0 0 0 0 0 0
1 2 2 3 3 3 3 2 1 0 0 0 0 0 0 0 0 0 0 0 0 0 0 0 0 0 0 0 0 0 0 0 0 0 0 0 0 0 0 0 0 0 0
1 2 3 3 3 3 3 2 1 0 0 0 0 0 0 0 0 0 0 0 0 0 0 0 0 0 0 0 0 0 0 0 0 0 0 0 0 0 0 0 0 0 0
1 2 3 3 3 3 2 1 0 0 0 0 0 0 0 0 0 0 0 0 0 0 0 0 0 0 0 0 0 0 0 0 0 0 0 0 0 0 0 0 0 0 0
0 1 3 3 3 3 2 1 0 0 0 0 0 0 0 0 0 0 0 0 0 0 0 0 0 0 0 0 0 0 0 0 0 0 0 0 0 0 0 0 0 0 0
0 1 2 3 3 3 2 1 0 0 0 0 0 0 0 0 0 0 0 0 0 0 0 0 0 0 0 0 0 0 0 0 0 0 0 0 0 0 0 0 0 0 0
0 0 1 2 4 4 3 1 0 0 0 0 0 0 0 0 0 0 0 0 0 0 0 0 0 0 0 0 0 0 0 0 0 0 0 0 0 0 0 0 0 0 0
0 0 0 1 3 5 4 2 0 0 0 0 0 0 0 0 0 0 0 0 0 0 0 0 0 0 0 0 0 0 0 0 0 0 0 0 0 0 0 0 0 0 0
0 0 0 1 3 5 5 3 1 0 0 0 0 0 0 0 0 0 0 0 0 0 0 0 0 0 0 0 0 0 0 0 0 0 0 0 0 0 0 0 0 0 0
0 0 0 1 3 4 4 3 1 0 0 0 0 0 0 0 0 0 0 0 0 0 0 0 0 0 0 0 0 0 0 0 0 0 0 0 0 0 0 0 0 0 0
0 0 0 1 2 2 2 2 1 0 0 0 0 0 0 0 0 0 0 0 0 0 0 0 0 0 0 0 0 0 0 0 0 0 0 0 0 0 0 0 0 0 0
0 0 0 0 0 0 1 1 0 0 0 0 0 0 0 0 0 0 0 0 0 0 0 0 0 0 0 0 0 0 0 0 0 0 0 0 0 0 0 0 0 0 0
0 0 0 0 0 0 0 0 0 0 0 0 0 0 0 0 0 0 0 0 0 0 0 0 0 0 0 0 0 0 0 0 0 0 0 0 0 0 0 0 0 0 0
0 0 0 0 0 0 0 0 0 0 0 0 0 0 0 0 0 0 0 0 0 0 0 0 0 0 0 0 0 0 0 0 0 0 0 0 0 0 0 0 0 0 0
0 0 0 0 0 0 0 0 0 0 0 0 0 0 0 0 0 0 0 0 0 0 0 0 0 0 0 0 0 0 0 0 0 0 0 0 0 0 0 0 0 0 0
0 0 0 0 0 0 0 0 0 0 0 0 0 0 0 0 0 0 0 0 0 0 0 0 0 0 0 0 0 0 0 0 0 0 0 0 0 0 0 0 0 0 0
0 0 0 0 0 0 0 0 0 0 0 0 0 0 0 0 0 0 0 0 0 0 0 0 0 0 0 0 0 0 0 0 0 0 0 0 0 0 0 0 0 0 0
0 0 0 0 0 0 0 0 0 0 0 0 0 0 0 0 0 0 0 0 0 0 0 0 0 0 0 0 0 0 0 0 0 0 0 0 0 0 0 0 0 0 0
0 0 0 0 0 0 0 0 0 0 0 0 0 0 0 0 0 0 0 0 0 0 0 0 0 0 0 0 0 0 0 0 0 0 0 0 0 0 0 0 0 0 0
0 0 0 0 0 0 0 0 0 0 0 0 0 0 0 0 0 0 0 0 0 0 0 0 0 0 0 0 0 0 0 0 0 0 0 0 0 0 0 0 0 0 0
Wind_Speed
3 4 4 6 7 8 9 9 9 10 11 11 11 11 11 11 11 11 11 12 12 11 12 12 12 12 11 11 12 11 11 10 9 9 8 8 9 9 10 10 9 6 10
4 5 4 6 7 8 8 8 9 10 10 11 11 11 11 11 11 11 11 11 11 11 11 11 11 11 11 10 10 10 9 8 7 7 6 5 7 8 9 9 9 6 10
5 5 5 7 7 8 8 8 9 9 10 10 11 11 11 11 11 10 10 10 10 10 10 10 10 10 10 9 9 9 8 7 6 6 5 2 4 8 8 8 8 9 9
5 5 6 7 8 9 9 9 9 9 9 10 10 11 11 11 11 10 10 10 9 9 9 9 9 9 9 9 8 8 7 7 7 7 4 3 4 8 8 8 8 9 9
6 6 7 8 9 9 9 10 9 9 10 10 10 10 11 10 10 11 10 9 9 9 9 9 8 8 8 8 8 7 7 8 8 6 4 5 5 8 9 9 9 9 9
6 6 7 8 9 9 9 9 9 9 9 10 9 10 10 10 10 10 10 10 9 9 9 9 8 8 8 8 7 7 7 8 7 4 4 5 5 8 9 9 9 9 9
5 6 7 8 8 9 9 9 9 9 9 9 9 8 9 9 9 9 9 9 9 9 8 8 8 8 8 8 7 7 7 8 5 5 5 5 6 9 9 9 9 9 9
5 6 6 8 8 8 8 8 8 8 8 8 8 8 8 8 9 9 8 8 8 9 9 8 8 7 7 7 7 7 7 7 6 5 5 5 8 9 9 8 9 9 9
5 5 4 4 5 7 7 7 7 7 7 7 7 7 7 7 8 8 8 8 8 8 8 8 7 7 7 6 6 6 7 8 5 4 5 5 9 10 9 9 9 9 9
4 4 3 3 3 3 3 5 5 5 6 6 6 5 5 5 5 6 6 6 6 7 6 6 7 6 6 6 6 6 5 5 3 4 4 6 9 9 9 9 9 9 8
4 3 3 2 2 2 2 3 3 3 4 4 3 3 3 1 2 3 4 5 6 6 5 5 6 6 5 5 5 5 4 2 3 4 4 7 9 9 9 9 9 9 9
4 3 2 2 2 1 1 2 1 1 1 1 1 1 1 1 1 2 3 4 5 4 4 4 4 4 3 2 3 3 2 3 3 4 4 8 8 8 8 8 8 8 8
2 3 3 2 2 2 1 1 1 1 1 1 1 1 1 1 1 1 1 1 1 1 1 2 3 2 2 2 2 1 2 2 3 3 5 8 8 8 7 7 7 7 7
3 4 4 3 3 2 2 2 1 1 1 1 1 2 2 1 1 1 1 1 1 1 1 1 1 2 2 3 3 3 3 2 2 2 4 8 8 7 7 7 7 7 7
2 3 3 3 3 2 2 2 2 1 1 2 2 2 2 1 1 1 1 1 1 1 1 1 1 2 2 3 3 3 3 3 3 3 3 7 8 7 7 7 7 7 7
2 2 3 3 3 3 3 2 2 2 2 2 2 2 2 2 1 1 1 1 1 1 1 1 1 2 2 2 3 3 3 3 3 3 3 4 7 7 8 8 7 7 7
2 2 2 2 3 3 3 2 2 2 2 2 2 2 3 2 2 1 1 1 1 1 1 1 1 1 1 2 2 2 2 2 2 2 2 2 3 6 8 8 8 8 7
1 2 2 2 3 2 2 1 1 2 2 2 2 2 2 2 2 1 1 1 1 1 1 1 1 1 1 1 1 1 1 2 2 3 3 3 3 3 6 8 9 9 8
1 1 1 1 2 2 2 1 2 2 2 2 2 2 2 2 2 1 1 1 1 1 1 1 1 1 1 1 1 1 1 1 2 2 3 3 3 3 3 6 9 10 10
1 0 1 1 2 1 1 1 1 2 2 2 2 2 2 2 2 2 1 2 1 1 1 1 1 1 1 1 1 2 1 0 1 1 1 2 2 3 3 4 3 5 9
1 0 1 1 1 1 1 1 1 1 1 1 1 2 2 2 2 2 1 2 2 1 1 1 1 1 1 1 1 1 1 0 1 1 1 1 1 2 2 3 2 2 3
1 0 0 1 1 1 1 1 0 0 0 0 1 1 1 2 2 1 1 1 1 1 1 1 1 0 0 1 0 1 1 1 1 1 1 1 1 1 2 2 2 2 2
0 1 1 0 0 1 1 1 1 1 1 0 1 1 1 1 1 1 1 1 1 1 0 0 0 0 1 1 0 0 1 1 2 1 1 1 1 1 2 2 2 2 3
1 0 0 0 0 1 1 1 1 0 1 1 1 1 0 0 1 1 1 0 0 0 0 0 0 0 0 1 1 1 1 1 1 2 2 1 1 2 2 2 2 2 2
1 1 0 0 0 1 1 1 1 1 1 1 0 0 0 1 0 0 0 0 0 0 0 0 0 0 0 1 1 1 1 1 1 2 3 2 2 2 2 2 2 2 2
1 1 1 1 1 1 1 1 1 1 1 1 1 1 1 1 0 0 0 0 0 0 0 0 0 0 0 0 1 1 1 1 1 1 3 3 3 3 3 2 2 2 2
Wind_Direction
66 76 51 64 72 74 75 82 81 81 81 79 76 75 76 76 75 73 71 70 70 69 68 66 66 63 61 58 56 53 50 46 44 43 47 53 53 51 46 41 37 42 44
84 91 65 71 80 75 73 75 83 84 83 80 77 74 72 74 75 75 71 69 68 68 68 66 65 62 60 56 54 49 45 39 33 25 33 53 62 55 48 43 39 39 39
80 92 80 72 77 74 72 73 78 85 85 80 77 73 70 69 71 71 70 67 67 68 67 65 63 61 58 53 50 45 38 28 15 5 3 31 66 54 47 44 40 39 36
77 86 86 69 71 72 72 73 74 76 81 78 76 72 68 67 67 66 66 63 63 65 65 64 62 60 56 52 48 43 31 15 359 351 356 36 54 50 45 46 43 39 35
74 77 77 71 73 72 69 69 71 75 75 76 75 71 67 64 64 64 63 59 61 61 60 60 59 58 55 51 47 39 23 6 358 350 25 39 51 50 45 44 44 41 36
76 78 77 70 72 72 69 69 69 71 73 71 71 70 67 64 62 63 61 57 57 56 56 55 55 54 52 48 43 33 18 4 356 12 32 44 48 50 47 43 45 44 40
76 79 80 69 68 69 69 67 67 70 70 68 65 67 66 62 60 61 59 56 54 51 51 52 51 51 49 45 40 30 17 8 9 27 36 45 49 52 46 40 41 42 41
76 83 86 70 67 66 66 65 64 66 67 65 61 61 65 63 60 59 56 51 50 50 47 50 50 49 49 46 40 30 20 9 26 31 40 45 44 46 44 40 37 39 46
76 86 90 91 83 70 66 65 64 62 62 63 59 55 58 63 60 55 50 46 46 47 44 47 47 45 44 43 38 30 21 17 27 28 41 48 48 47 44 39 37 42 44
55 67 82 93 96 96 85 73 68 63 58 60 57 48 48 58 62 56 49 42 43 42 43 47 46 43 40 36 30 22 18 17 32 32 45 46 46 45 40 36 35 36 39
43 43 51 66 82 97 107 92 87 75 60 61 57 46 39 46 61 59 51 40 37 36 41 46 45 41 35 31 28 23 15 21 38 46 45 44 45 42 38 36 33 34 34
30 20 36 47 43 61 87 101 106 91 86 66 52 15 355 20 46 55 54 45 35 31 35 34 33 31 26 27 21 19 19 25 46 51 46 45 44 42 37 34 30 28 28
34 18 15 40 42 43 44 71 55 68 68 53 38 354 5 28 61 63 56 54 39 30 28 19 24 20 16 26 33 30 34 40 47 48 42 44 43 40 35 32 27 23 22
32 17 2 27 38 35 37 35 48 56 55 50 22 10 19 17 47 50 58 35 29 3 18 25 32 24 29 30 33 33 37 45 51 52 45 42 39 34 30 26 23 25 24
40 23 7 22 30 34 41 26 36 50 60 46 37 20 23 16 22 29 35 33 6 4 35 27 35 35 35 36 38 37 38 41 45 48 43 41 37 30 27 26 23 27 29
32 30 10 20 31 33 42 37 28 43 51 51 43 35 28 22 21 34 23 21 6 8 10 32 41 49 37 39 37 35 41 39 42 52 45 37 36 28 24 24 19 17 18
54 45 24 16 36 32 38 35 37 44 43 43 39 44 36 21 18 27 30 27 353 349 11 36 59 62 61 45 39 33 43 45 40 43 40 36 33 30 22 18 16 11 9
68 66 32 28 60 36 27 31 37 53 52 40 35 40 37 17 13 7 13 15 334 353 27 41 70 62 55 42 21 18 39 46 42 41 42 38 31 28 21 19 14 9 5
89 97 53 62 74 49 22 27 48 56 56 47 43 36 22 9 4 19 7 356 354 15 37 38 56 85 76 31 13 18 42 50 42 49 50 41 35 33 26 20 18 13 8
80 90 115 101 89 77 48 30 41 52 44 47 50 35 19 11 11 12 3 350 359 28 30 40 41 30 78 41 360 3 12 39 68 58 57 50 39 32 29 21 15 6 8
100 93 137 125 130 117 45 21 1 22 25 33 42 31 15 9 5 14 6 356 355 15 18 19 54 59 56 58 28 343 328 259 129 63 51 55 43 32 29 19 16 9 358
155 135 210 171 159 146 51 39 15 331 277 173 44 39 20 6 353 1 5 349 344 2 28 14 30 23 332 34 65 334 312 325 7 358 24 35 40 13 8 11 2 357 359
175 214 254 352 103 104 95 69 28 337 301 1 7 3 350 347 343 353 346 337 341 4 86 33 60 53 234 272 75 169 239 259 321 302 343 345 23 5 341 349 347 352 346
203 200 203 124 111 136 140 146 169 258 259 248 234 247 280 307 320 328 332 324 342 359 64 241 95 260 195 242 268 313 256 220 246 292 292 307 351 325 323 323 318 320 322
160 158 174 162 167 180 189 195 209 251 273 269 271 242 323 326 347 359 350 358 341 326 357 9 30 63 206 238 251 288 295 297 249 242 279 292 307 288 282 281 279 291 296
148 156 182 187 209 197 201 221 224 239 278 301 301 312 305 302 312 20 44 197 212 225 231 275 331 25 191 289 277 272 272 265 280 263 274 292 292 281 277 270 271 273 281